Torna al catalogo

OPS 4682 DEB

AttivoPO
NORAD 55118·DEBRIS·🇺🇸 United States

Lanciato Apr 3, 1965 da Vandenberg Space Force Base

Loading…

Prossimi Passaggi (prossime 24 ore)

TLE

In scadenzaSource: Space-Track

Epoca: Sep 5, 2026, 02:27 UTC

1 55118U 65027HH  26248.10221157  .00000456  00000-0  15110-2 0  9996
2 55118  90.2411   5.5184 0033950 167.8897 316.7858 12.98801371602688

Traccia OPS 4682 DEB in tempo reale con AllMySat

Download on the App Store